ASTRA 1G
1 25071U 97076A   03108.00000000  .00000114  00000-0  10000-3 0  3990
2 25071   0.0122 319.8851 0002995  65.1991 199.8263  1.00273184 19726
INMARSAT 3-F5
1 25153U 98006B   03107.00268301  .00000135  00000-0  10000-3 0  8723
2 25153   0.4579   3.8033 0003168  24.3611 202.4875  1.00269769 19070
HOT BIRD 4
1 25237U 98013A   03099.84635997  .00000087  00000-0  10000-3 0  3344
2 25237   0.0316 347.7932 0006645  69.4486  98.0254  1.00270260 19044
NOAA 15
1 25338U 98030A   03108.46936147  .00000144  00000-0  80711-4 0   837
2 25338  98.5474 129.0186 0011110 141.1266 219.0713 14.24272927256187
RESURS O1-N4
1 25394U 98043A   03108.24110834  .00000080  00000-0  53847-4 0  4974
2 25394  98.6208 185.0567 0000749 336.8921  23.2222 14.23899786247881
TMSAT
1 25396U 98043C   03106.96120389 -.00000043 +00000-0 +00000-0 0 08411
2 25396 098.6162 182.9104 0002013 352.1363 007.9785 14.23529731247694
TECHSAT 1B
1 25397U 98043D   03106.93510874 +.00000036 +00000-0 +35152-4 0 01662
2 25397 098.6138 181.6945 0001434 022.9855 337.1386 14.22973451247653
ASTRA 2A
1 25462U 98050A   03099.00000000  .00000152  00000-0  00000+0 0  5401
2 25462   0.0385 308.7109 0004824 280.8620 355.4582  1.00272094 16935
EUTELSAT W2
1 25491U 98056A   03105.84269355  .00000000  00000-0  10000-3 0  5989
2 25491   0.0466 135.2279 0068238 294.0685  93.0438  1.00275633 16617
HOT BIRD 5
1 25495U 98057A   03099.85365163  .00000146  00000-0  00000+0 0  5088
2 25495   0.0280  82.8420 0010247 215.0657 232.9622  1.00274308 16526
SEDSAT 1
1 25509U 98061B   03108.39826697  .00000311  00000-0  51849-4 0  8262
2 25509  31.4275 180.9276 0357168  96.5786 267.5574 14.27484752233726
PAN SAT
1 25520U 98064B   03108.48932447  .00001762  00000-0  83831-4 0  6613
2 25520  28.4625 191.3151 0006052 273.0315  86.9559 15.14187753246521
ISS (ZARYA)
1 25544U 98067A   03108.82091880 -.00005731  00000-0 -67696-4 0  9051
2 25544  51.6325 318.4510 0006615  32.7912  73.7539 15.58236225251740
ORSTED
1 25635U 99008B   03107.97693454  .00000361  00000-0  98572-4 0  8821
2 25635  96.4609  80.2763 0145392 143.0903 218.0407 14.44926662218374
SUNSAT
1 25636U 99008C   03106.92566627 +.00000187 +00000-0 +56577-4 0 07528
2 25636 096.4624 078.0140 0149268 153.4690 207.4247 14.42998877218087
UOSAT 12
1 25693U 99021A   03108.47947686  .00000182  00000-0  45930-4 0  8860
2 25693  64.5621 190.4674 0025616 312.5094  47.3845 14.76452888214951
FENGYUN 1C
1 25730U 99025A   03107.91186705 -.00000018  00000-0  13415-4 0  8144
2 25730  98.6282 130.1125 0014075 192.9808 167.1004 14.11740252202865
ASTRA 1H
1 25785U 99033A   03108.00000000  .00000114  00000-0  10000-3 0  3795
2 25785   0.0122 319.8851 0002995  65.1991 199.8210  1.00273184 14084
TERRA
1 25994U 99068A   03108.29953427  .00000270  00000-0  69815-4 0  8917
2 25994  98.1885 183.5776 0000833  87.5985 272.5309 14.57135684177224
JAWSAT
1 26061U 00004A   03107.54411154  .00000392  00000-0  14813-3 0  8145
2 26061 100.1950 175.3417 0035895 115.8038 244.6853 14.37898365168862
OPAL
1 26063U 00004C   03107.19759821  .00000085  00000-0  49453-4 0  7646
2 26063 100.2019 172.1985 0037334 124.0573 236.4152 14.35507139168654
ASUSAT
1 26065U 00004E   03108.54728160  .00000090  00000-0  51124-4 0  7835
2 26065 100.1988 173.9550 0037966 121.7286 238.7603 14.35537488168840
GOES 11
1 26352U 00022A   03107.60842574 -.00000036  00000-0  10000-3 0  1164
2 26352   0.2850  99.0218 0002448 240.3392 330.9469  1.00272392 10815
EUTELSAT W4
1 26369U 00028A   03105.78126854  .00000150  00000-0  00000+0 0  3759
2 26369   0.0567  31.2297 0002759 330.6543 158.9819  1.00272063 10617
FENGYUN 2B
1 26382U 00032A   03107.76794047 -.00000336  00000-0  00000+0 0  8330
2 26382   0.4279 294.2250 0001530 265.0818  26.9038  1.00283289 10291
EUTELSAT W1
1 26487U 00052A   03107.17691552  .00000063  00000-0  10000-3 0  3853
2 26487   0.0211 147.4715 0005563 274.1758 216.8781  1.00274473  9599
ASTRA 2B
1 26494U 00054A   03108.00000000  .00000144  00000-0  00000+0 0  2627
2 26494   0.0178 354.5658 0005000 302.8402 296.4717  1.00276704  9500
NOAA 16
1 26536U 00055A   03108.39971637  .00000467  00000-0  27939-3 0  2947
2 26536  98.9103  56.2790 0011137 135.9739 224.2330 14.11940775132453
SAUDISAT 1A
1 26545U 00057A   03107.55878709  .00000702  00000-0  11207-3 0  4396
2 26545  64.5591 213.6694 0047639 229.5945 130.0965 14.79133728137796
UNISAT
1 26547U 00057C   03107.17544560  .00001309  00000-0  18744-3 0  4590
2 26547  64.5576 216.8439 0054945 230.9563 128.6660 14.79993418137710
TIUNGSAT 1
1 26548U 00057D   03107.28829745  .00000970  00000-0  14044-3 0  4428
2 26548  64.5575 206.7420 0040890 230.0407 129.7116 14.81467719137913
SAUDISAT 1B
1 26549U 00057E   03106.75710708 +.00000755 +00000-0 +12168-3 0 07360
2 26549 064.5525 220.5422 0052138 229.3080 130.3488 14.78063681137591
AMSAT OSCAR 40
1 26609U 00072B   03101.06918723 -.00000337  00000-0  10000-3 0  3243
2 26609   8.4684  54.7135 7954739 162.8251 262.9704  1.25597299 11235
GOES 12
1 26871U 01031A   03108.43122434 -.00000256  00000-0  10000-3 0  9240
2 26871   0.1816 274.2529 0000718 105.8769 264.5464  1.00347199  6422
PCSAT
1 26931U 01043C   03108.24124131  .00000079  00000-0  63652-4 0  4525
2 26931  67.0470 104.5637 0005844 273.4116  86.6316 14.29147954 80732
SAPPHIRE
1 26932U 01043D   03107.86229051  .00000040  00000-0  48008-4 0  4469
2 26932  67.0537 105.2309 0003984 264.1523  95.9124 14.29317559 80700
ENVISAT
1 27386U 02009A   03107.52916019  .00000126  00000-0  62790-4 0    34
2 27386  98.5453 175.2569 0000943  88.8946 271.2346 14.32246235 59041
IDEFIX/ARIANE 42P
1 27422U 02021B   03107.89936450  .00000132  00000-0  71198-4 0  2828
2 27422  98.6867 186.8041 0012185 344.2846  15.7953 14.28002518 49788
FENGYUN 1D
1 27431U 02024B   03108.24284403  .00000104  00000-0  84442-4 0  2639
2 27431  98.7556 155.6209 0014491 321.1828  38.8298 14.09185047 47638
NOAA 17
1 27453U 02032A   03108.47562110  .00000203  00000-0  10921-3 0  3788
2 27453  98.7453 179.3452 0011892 181.6233 178.4909 14.23330642 42344
HOT BIRD 6
1 27499U 02038A   03104.14052927  .00000000  00000-0  10000-3 0   739
2 27499   0.0313 303.0505 0012771 138.1476 184.1937  1.00273600  2378
RUBIN 2
1 27605U 02058A   03107.82624696  .00000309  00000-0  70808-4 0  1103
2 27605  64.5516  20.3229 0034891  86.4887 274.0196 14.71462555 17381
